Wind_Speed
24 23 21 20 22 19 17 17 17 17 16 16 15 14 14 12 11 10 9 9 8 8 7 7 6 7 8 8 8 8 8 8 9 10 10 10 10 10 10 10 10 10 11 11 11 11 10 10 9
24 23 21 24 22 20 19 18 18 17 17 16 16 16 15 13 12 11 10 9 8 8 8 7 7 8 8 8 8 8 7 7 8 9 9 9 10 9 10 9 9 10 10 10 10 10 10 10 10
23 23 23 24 21 20 20 20 19 18 18 17 17 16 16 15 14 12 11 10 9 8 8 8 8 8 9 9 9 8 9 9 8 8 8 9 9 9 10 9 9 10 10 9 10 11 11 10 10
22 22 24 22 20 20 21 21 21 20 20 19 19 18 17 16 15 13 12 11 10 9 9 8 8 9 9 9 9 10 9 9 9 9 8 8 9 9 9 9 9 10 10 10 11 11 11 10 9
20 23 22 19 20 20 21 21 22 22 21 20 19 19 18 16 15 13 12 12 11 10 9 9 9 9 9 9 9 10 9 9 9 9 9 9 9 9 9 9 10 10 10 11 11 11 11 10 9
21 23 19 19 19 20 21 21 22 23 22 21 20 19 18 17 15 14 13 12 11 10 9 9 9 9 9 8 9 9 9 9 9 9 8 9 9 9 9 9 10 10 10 10 10 10 10 10 9
20 19 18 19 19 20 20 21 22 22 22 21 20 19 18 17 16 14 13 12 12 11 10 9 9 9 9 8 8 8 8 8 8 9 8 8 9 9 8 9 10 10 10 10 11 10 10 10 9
17 18 17 18 18 19 19 20 21 22 22 21 20 20 19 17 16 15 14 13 12 11 10 9 8 8 8 8 7 7 7 6 7 7 7 8 9 9 9 9 9 9 9 10 10 10 10 9 9
15 17 15 16 17 17 18 19 20 21 21 21 20 20 19 17 16 15 14 13 12 11 10 10 9 8 8 8 7 7 6 5 6 6 7 7 8 9 9 9 9 9 9 10 10 10 10 9 9
14 14 13 14 15 16 17 18 19 20 20 20 20 19 18 17 17 16 14 13 12 11 11 10 10 9 9 8 8 7 6 6 6 6 7 7 8 8 9 9 9 8 8 9 9 10 10 9 9
11 11 12 13 14 15 16 17 17 18 19 20 19 19 18 17 16 15 14 13 12 11 11 10 10 9 9 9 9 8 7 7 7 6 7 7 7 8 8 8 9 9 9 9 10 10 10 9 9
7 8 9 11 12 13 14 14 16 17 17 18 18 18 17 17 16 15 14 13 12 12 11 10 10 9 9 9 9 8 7 7 7 6 6 6 7 7 7 7 7 7 7 8 9 8 9 9 8
5 6 7 8 9 11 12 12 14 15 15 15 16 17 16 16 16 14 13 13 12 11 11 11 10 10 9 9 9 8 7 6 6 6 6 6 6 7 7 7 7 7 7 8 8 8 9 9 8
2 4 5 6 7 8 10 10 11 12 13 13 14 15 15 15 14 14 13 12 11 11 11 11 10 10 10 9 9 8 7 7 6 6 5 5 5 5 5 6 6 6 7 7 6 7 8 8 8
0 1 3 4 4 5 6 8 9 10 11 12 12 12 13 13 13 12 12 11 11 10 10 10 10 10 9 9 9 8 8 7 6 5 4 4 3 3 4 4 5 6 6 6 6 6 6 7 7
4 3 2 2 2 3 4 5 6 8 8 9 10 11 11 12 11 11 11 11 10 10 10 10 10 9 9 8 8 9 8 7 5 4 3 3 3 2 3 3 4 5 5 5 6 6 6 6 7
7 5 5 4 2 2 2 3 4 6 7 7 8 9 9 10 10 10 11 10 10 9 9 9 10 9 9 8 8 8 8 7 5 4 4 3 2 2 3 3 3 3 4 5 6 6 6 6 7
10 9 8 7 5 3 2 2 3 5 6 6 7 7 8 8 8 9 9 9 9 9 9 9 9 9 9 8 8 8 7 7 6 5 4 3 2 1 0 1 2 3 4 4 6 6 7 7 8
14 12 11 10 8 6 5 4 4 5 5 5 6 7 7 7 7 7 8 8 8 8 8 8 8 8 8 8 8 7 7 6 5 4 4 3 3 3 2 2 2 3 4 5 6 7 8 8 8
16 14 13 12 11 9 7 6 6 5 5 5 6 6 6 6 5 6 6 7 7 7 7 7 7 7 8 8 7 7 7 6 5 5 4 4 4 4 3 3 3 4 5 6 7 7 8 9 9
17 16 14 14 13 11 10 9 8 7 6 6 6 6 6 6 5 5 6 6 6 6 6 6 6 7 8 7 7 6 7 6 6 6 5 5 5 5 4 4 4 5 5 6 7 8 8 9 9
19 18 17 17 15 13 12 11 11 9 8 7 7 7 7 7 6 7 6 6 6 6 7 6 6 6 7 8 7 6 7 7 7 6 6 6 6 5 5 5 5 5 5 6 6 8 8 9 9
22 22 20 20 18 17 15 13 12 12 9 9 9 9 8 8 8 8 8 7 7 7 7 8 7 7 7 7 7 7 7 7 7 7 7 7 6 6 6 6 6 6 6 7 7 7 7 7 8
26 24 23 22 20 20 18 16 15 13 12 11 10 10 10 11 10 10 9 9 8 8 9 9 9 9 9 9 8 8 8 8 8 7 7 7 7 7 7 7 8 8 8 8 8 8 8 8 8
28 25 23 22 22 22 20 20 17 15 14 12 12 12 12 12 13 13 12 11 10 10 10 10 10 10 10 10 10 9 9 9 9 9 8 8 8 9 9 9 9 9 9 9 9 9 9 9 9
28 26 25 23 21 20 23 22 18 17 16 14 14 13 13 13 13 14 14 13 12 12 12 12 12 12 11 11 11 10 10 10 10 10 10 10 10 10 11 11 11 11 11 11 10 10 10 10 10
29 27 24 24 23 21 22 22 20 19 18 17 15 14 14 15 15 15 15 15 15 15 14 14 14 13 13 13 12 13 12 11 12 11 12 11 11 11 11 12 12 12 12 12 12 12 12 12 12
30 28 27 26 24 23 23 22 20 19 18 18 17 16 16 16 17 17 17 17 17 17 16 16 16 15 14 14 14 14 14 14 14 13 13 13 13 13 13 13 13 13 13 14 15 15 15 15 14
31 31 30 28 26 24 22 21 21 21 19 18 18 18 18 18 19 19 18 18 18 18 18 18 18 17 17 16 16 16 17 17 16 15 15 14 14 15 14 14 15 14 15 16 17 17 17 17 17
31 31 31 29 29 27 25 22 22 21 19 19 19 20 20 20 20 20 20 20 20 20 20 20 20 19 19 18 18 19 19 19 19 17 16 16 17 17 16 16 16 17 17 18 18 18 18 18 18
Wind_Direction
63 63 64 67 65 65 69 72 74 73 71 71 71 71 74 77 81 84 87 90 92 93 96 106 119 128 131 132 132 125 125 125 124 124 126 129 132 135 137 136 133 133 133 133 134 137 137 135 132
64 63 64 65 66 66 68 71 72 72 71 70 70 69 70 73 77 80 84 88 90 93 92 98 107 122 129 134 132 129 129 125 125 125 124 127 129 133 137 136 136 135 135 135 137 138 139 137 133
65 64 64 65 67 68 68 70 72 73 70 69 70 69 70 71 73 77 81 86 90 92 91 93 102 112 118 123 122 123 126 128 128 127 127 127 131 133 136 136 137 138 139 139 141 142 141 138 134
67 67 63 63 65 66 67 68 70 70 68 68 69 68 69 70 72 75 78 83 88 90 94 93 99 103 111 118 118 119 122 122 123 124 124 128 134 136 136 138 137 138 141 143 145 146 143 141 136
66 66 63 63 64 65 67 69 69 68 66 65 65 66 67 68 69 72 77 81 83 86 88 90 97 98 105 113 115 115 118 120 120 122 120 123 130 135 137 138 138 140 142 143 145 147 146 143 140
68 66 66 65 65 66 66 68 69 67 65 63 62 63 65 65 66 69 74 79 80 82 84 86 91 97 102 106 107 111 113 115 120 124 123 125 130 137 139 142 141 141 144 145 145 147 151 145 141
71 70 67 68 67 66 65 66 67 66 63 60 60 61 63 64 64 67 70 73 76 79 81 82 86 92 96 100 104 109 116 117 117 123 125 129 138 143 143 145 145 144 143 144 144 149 149 146 146
70 68 62 65 66 65 66 67 67 65 63 61 60 60 61 63 64 65 67 70 74 78 80 82 83 88 92 92 97 109 116 120 117 119 122 131 139 145 145 146 146 148 148 149 151 152 151 151 151
68 66 64 66 66 64 65 66 66 65 64 61 59 60 61 62 63 64 66 68 71 75 78 79 79 82 84 85 88 100 107 112 116 120 122 129 137 142 143 148 148 149 152 155 157 157 156 157 157
68 71 67 68 66 63 63 64 64 64 62 60 59 59 60 61 63 63 64 65 68 71 73 76 75 77 77 78 80 85 97 98 106 118 125 130 140 144 147 150 151 149 152 157 164 166 166 164 164
70 71 69 68 65 64 62 61 60 61 60 58 57 57 59 61 61 61 62 63 65 67 68 69 72 74 76 75 74 77 87 91 100 113 123 127 140 147 151 153 155 159 161 166 171 170 172 168 168
70 67 65 64 63 63 61 60 59 59 59 58 56 56 57 58 59 59 60 61 63 64 66 67 68 70 73 72 71 73 82 88 98 108 122 126 138 144 149 157 158 163 169 178 179 177 181 179 177
63 64 62 59 61 63 65 64 61 58 58 57 54 54 54 56 58 58 59 61 63 63 64 64 64 64 66 66 67 67 74 88 95 101 117 128 137 144 148 155 163 171 181 187 186 184 187 191 192
61 59 57 53 53 59 68 67 63 58 55 52 51 51 50 52 55 57 57 58 61 61 61 61 61 63 64 64 63 63 69 87 95 101 116 122 127 138 154 163 170 178 189 194 193 192 196 199 200
335 16 32 39 42 48 58 61 63 56 50 46 46 47 45 46 51 53 54 55 59 60 59 57 56 60 64 63 60 60 63 68 81 89 105 114 124 138 154 170 187 192 197 197 197 197 202 207 214
265 289 316 338 16 31 43 44 49 46 45 43 41 41 39 39 45 47 47 48 51 55 54 54 53 55 59 58 58 57 57 55 58 73 97 108 126 147 169 188 196 195 196 199 207 204 208 215 221
254 254 260 272 296 349 24 24 29 32 35 37 34 33 33 31 35 39 41 40 42 47 47 51 52 50 51 51 50 49 44 43 49 54 66 77 107 151 189 200 196 205 214 217 219 214 218 227 232
242 244 251 263 273 285 316 335 349 7 18 22 21 21 19 17 22 28 32 35 37 40 41 47 47 45 43 44 40 38 36 37 39 48 47 47 42 35 313 232 229 241 237 232 230 228 229 234 237
237 237 245 256 261 268 275 282 303 338 358 1 5 8 6 6 11 18 20 23 31 34 37 40 36 33 33 33 32 32 30 30 30 30 23 17 3 348 325 276 278 272 261 250 247 244 240 242 244
236 238 246 256 259 262 267 270 278 304 325 332 337 346 350 349 357 1 1 6 12 17 20 23 23 20 18 17 24 27 28 25 19 9 1 354 350 344 330 299 287 281 274 266 258 257 254 249 250
239 239 243 252 260 261 262 271 274 281 296 306 314 320 325 328 331 333 339 347 355 358 358 0 6 9 9 6 8 14 17 20 14 9 3 355 348 340 334 319 302 287 278 274 264 261 263 260 257
242 244 244 248 254 261 258 262 271 273 281 289 291 295 300 305 305 309 317 321 328 332 335 335 339 345 350 352 355 360 3 5 4 1 360 354 345 336 333 326 317 302 289 285 280 272 267 264 263
239 245 248 250 252 254 257 257 262 267 273 277 278 275 277 287 291 296 303 306 312 315 317 320 320 321 329 333 340 342 343 345 347 344 343 342 337 327 321 316 311 307 296 289 285 282 277 274 271
239 244 248 252 254 254 252 255 258 262 267 267 268 266 270 276 279 284 291 293 298 303 307 308 308 307 313 318 322 325 327 330 329 326 325 327 326 322 316 309 304 305 301 293 289 284 281 276 274
238 240 245 249 251 254 256 256 257 258 259 262 262 263 268 272 275 278 280 280 286 291 294 297 300 299 303 309 309 314 320 321 321 317 317 317 317 316 312 306 301 300 300 298 295 289 284 279 274
239 238 238 243 250 256 262 260 260 261 259 261 262 262 266 266 270 274 274 275 277 283 288 290 293 295 295 299 302 306 311 313 313 312 313 313 310 309 308 302 297 294 293 293 290 289 285 280 276
240 239 239 244 248 251 257 263 262 262 263 263 263 262 263 263 267 271 269 271 273 277 281 286 287 288 290 292 294 298 304 309 304 300 302 303 303 302 303 300 295 293 291 289 289 290 285 284 280
237 240 238 238 244 249 256 263 264 265 263 261 262 263 263 264 267 270 269 267 269 273 276 280 282 284 288 288 288 292 296 301 306 299 294 296 298 297 295 296 295 294 290 285 286 287 285 283 281
238 238 239 240 242 247 254 262 267 266 263 261 261 263 264 264 266 268 269 267 267 269 273 276 277 279 283 286 286 289 291 293 300 298 294 294 294 295 293 292 292 291 288 287 287 286 284 281 279
238 239 240 241 245 247 250 258 265 266 263 261 261 263 263 264 265 265 264 263 266 267 269 272 274 276 280 283 286 288 288 292 295 297 294 293 291 291 291 290 289 289 287 286 286 286 284 281 280
Height
5894 5892 5891 5891 5890 5891 5888 5887 5885 5883 5882 5881 5879 5878 5877 5876 5877 5878 5875 5872 5872 5872 5871 5871 5871 5871 5872 5872 5873 5873 5873 5873 5873 5873 5874 5874 5875 5876 5876 5877 5878 5879 5880 5881 5882 5884 5885 5886 5886
5897 5896 5896 5894 5895 5894 5891 5889 5887 5885 5884 5882 5881 5879 5878 5877 5876 5876 5874 5874 5874 5873 5873 5872 5872 5872 5873 5873 5874 5874 5874 5874 5874 5874 5875 5875 5876 5876 5877 5878 5879 5880 5881 5882 5883 5885 5886 5887 5888
5900 5899 5899 5898 5898 5896 5894 5892 5889 5887 5886 5884 5883 5881 5880 5879 5878 5877 5876 5876 5875 5875 5875 5874 5874 5874 5874 5874 5875 5875 5875 5875 5875 5875 5875 5876 5876 5877 5877 5878 5879 5880 5882 5883 5884 5885 5887 5888 5889
5904 5903 5902 5903 5900 5899 5897 5894 5892 5890 5888 5886 5885 5883 5882 5881 5880 5879 5878 5878 5877 5877 5876 5876 5876 5876 5875 5875 5876 5876 5876 5876 5876 5876 5876 5876 5877 5877 5878 5879 5880 5881 5882 5883 5885 5886 5888 5889 5890
5907 5906 5908 5906 5904 5902 5899 5897 5894 5892 5890 5889 5887 5886 5884 5883 5882 5881 5880 5879 5879 5879 5878 5878 5877 5877 5877 5877 5877 5877 5877 5877 5877 5877 5877 5877 5877 5878 5879 5880 5881 5882 5883 5884 5885 5887 5889 5890 5891
5910 5910 5912 5909 5907 5904 5902 5899 5897 5895 5893 5891 5890 5888 5886 5885 5884 5883 5882 5881 5881 5880 5880 5880 5879 5879 5878 5878 5878 5878 5878 5878 5877 5877 5878 5878 5878 5879 5880 5881 5881 5883 5884 5885 5886 5888 5890 5891 5892
5914 5914 5914 5912 5909 5907 5905 5903 5900 5898 5896 5894 5892 5891 5889 5887 5886 5885 5884 5883 5883 5882 5882 5881 5881 5880 5879 5879 5879 5879 5879 5878 5878 5878 5879 5879 5879 5880 5881 5882 5883 5884 5885 5886 5887 5889 5891 5892 5894
5916 5917 5916 5914 5912 5910 5908 5905 5903 5900 5899 5897 5895 5893 5891 5890 5888 5887 5886 5886 5885 5884 5884 5883 5883 5882 5881 5881 5880 5880 5880 5879 5879 5879 5879 5879 5880 5880 5881 5883 5884 5885 5886 5887 5889 5890 5892 5893 5894
5918 5921 5919 5917 5915 5913 5910 5908 5906 5904 5902 5900 5898 5896 5894 5892 5891 5890 5889 5888 5887 5886 5886 5885 5884 5884 5883 5882 5881 5881 5880 5880 5880 5880 5880 5881 5881 5881 5882 5883 5885 5886 5887 5888 5890 5891 5892 5894 5895
5922 5923 5921 5919 5917 5915 5913 5911 5909 5907 5904 5903 5901 5899 5897 5895 5894 5892 5891 5890 5889 5889 5888 5887 5886 5885 5884 5883 5882 5882 5881 5881 5880 5881 5881 5882 5882 5883 5883 5885 5886 5887 5888 5889 5890 5891 5893 5894 5895
5924 5924 5922 5920 5919 5917 5915 5913 5912 5909 5908 5906 5904 5902 5900 5898 5896 5895 5894 5893 5892 5891 5890 5889 5888 5887 5886 5885 5884 5883 5882 5882 5882 5882 5882 5883 5883 5884 5885 5886 5886 5888 5888 5889 5890 5892 5893 5894 5895
5925 5924 5923 5922 5921 5919 5917 5916 5914 5912 5911 5909 5907 5905 5903 5901 5899 5898 5896 5895 5894 5893 5892 5891 5890 5889 5888 5887 5886 5885 5884 5883 5883 5883 5884 5884 5884 5885 5886 5887 5888 5888 5889 5890 5891 5892 5893 5894 5895
5926 5925 5924 5923 5922 5921 5919 5917 5916 5914 5913 5911 5909 5907 5905 5904 5902 5901 5899 5898 5896 5895 5894 5893 5892 5891 5890 5889 5888 5887 5886 5885 5885 5885 5885 5885 5885 5886 5887 5887 5888 5889 5889 5890 5891 5892 5893 5894 5895
5926 5926 5925 5924 5923 5922 5921 5919 5918 5916 5915 5913 5911 5910 5908 5906 5905 5903 5902 5900 5899 5897 5896 5895 5894 5893 5892 5891 5890 5889 5888 5887 5886 5886 5886 5886 5886 5887 5887 5888 5888 5889 5890 5890 5890 5891 5892 5894 5895
5926 5926 5926 5925 5924 5923 5922 5921 5919 5918 5916 5915 5913 5912 5910 5909 5907 5905 5904 5903 5901 5900 5898 5897 5896 5894 5893 5893 5892 5890 5890 5889 5888 5888 5887 5887 5887 5887 5888 5888 5888 5889 5889 5890 5890 5891 5892 5893 5894
5925 5926 5927 5926 5925 5924 5924 5923 5921 5919 5917 5916 5915 5913 5912 5911 5909 5908 5906 5905 5903 5901 5900 5898 5897 5896 5895 5894 5893 5892 5891 5890 5890 5889 5889 5888 5888 5888 5888 5888 5888 5889 5889 5890 5890 5891 5891 5892 5893
5925 5926 5927 5926 5925 5924 5924 5923 5921 5920 5918 5917 5916 5914 5913 5912 5911 5909 5908 5906 5905 5903 5901 5900 5899 5898 5897 5896 5895 5893 5892 5892 5890 5890 5890 5889 5889 5889 5888 5888 5889 5889 5889 5890 5890 5891 5891 5892 5892
5925 5925 5925 5925 5924 5924 5923 5923 5922 5920 5919 5917 5916 5915 5914 5913 5912 5911 5909 5908 5906 5905 5903 5902 5901 5899 5898 5897 5896 5895 5894 5893 5891 5891 5890 5890 5890 5889 5889 5889 5889 5889 5889 5890 5890 5890 5890 5891 5891
5921 5922 5923 5923 5922 5923 5923 5923 5922 5920 5919 5918 5917 5916 5915 5914 5913 5912 5910 5909 5907 5906 5905 5903 5902 5901 5899 5898 5897 5896 5895 5894 5893 5892 5891 5890 5890 5889 5889 5889 5889 5889 5889 5889 5889 5889 5889 5889 5889
5917 5919 5920 5920 5920 5921 5921 5922 5921 5920 5919 5918 5917 5917 5915 5914 5913 5912 5911 5910 5908 5907 5906 5905 5903 5902 5900 5899 5898 5896 5895 5894 5893 5892 5891 5890 5890 5889 5889 5889 5888 5888 5888 5888 5888 5888 5888 5887 5888
5913 5916 5918 5918 5918 5918 5920 5920 5920 5920 5919 5918 5917 5916 5915 5914 5913 5912 5911 5910 5909 5907 5906 5905 5904 5902 5901 5899 5898 5897 5896 5894 5893 5892 5891 5891 5890 5889 5888 5888 5887 5887 5887 5887 5887 5886 5886 5886 5886
5910 5912 5914 5914 5915 5917 5918 5919 5919 5918 5917 5917 5916 5915 5914 5913 5913 5912 5911 5910 5909 5907 5906 5905 5904 5902 5901 5899 5898 5897 5896 5894 5893 5892 5891 5890 5890 5889 5888 5887 5886 5886 5886 5885 5885 5885 5884 5884 5884
5906 5907 5909 5910 5912 5913 5914 5915 5918 5915 5915 5915 5914 5913 5913 5912 5911 5911 5910 5909 5908 5907 5905 5904 5903 5902 5900 5899 5898 5896 5895 5894 5893 5892 5891 5890 5889 5888 5887 5886 5885 5885 5884 5884 5884 5883 5882 5882 5882
5900 5903 5904 5906 5908 5909 5910 5912 5913 5913 5913 5912 5912 5911 5911 5910 5909 5909 5908 5907 5907 5906 5904 5903 5902 5900 5899 5898 5897 5896 5895 5893 5892 5891 5890 5889 5888 5887 5886 5885 5884 5883 5883 5882 5882 5881 5880 5880 5880
5894 5898 5901 5902 5904 5905 5906 5906 5908 5909 5909 5909 5909 5908 5908 5908 5907 5906 5906 5905 5904 5904 5903 5901 5900 5899 5898 5897 5895 5894 5893 5892 5890 5889 5888 5887 5886 5885 5884 5883 5882 5882 5881 5880 5880 5879 5878 5878 5877
5888 5893 5897 5899 5901 5902 5900 5900 5904 5904 5904 5905 5905 5905 5905 5904 5904 5904 5903 5902 5902 5901 5900 5899 5898 5897 5895 5894 5893 5893 5892 5890 5889 5888 5887 5885 5884 5883 5882 5881 5880 5879 5879 5878 5877 5877 5875 5875 5874
5882 5886 5891 5894 5894 5896 5896 5896 5898 5898 5899 5900 5901 5901 5901 5900 5900 5900 5900 5899 5899 5898 5897 5897 5896 5895 5893 5892 5891 5890 5889 5888 5887 5885 5884 5883 5882 5880 5879 5878 5877 5876 5876 5875 5874 5873 5873 5872 5871
5876 5879 5883 5886 5888 5890 5891 5891 5893 5893 5894 5895 5896 5896 5896 5896 5896 5896 5896 5895 5895 5895 5894 5893 5893 5892 5891 5890 5889 5887 5886 5885 5884 5882 5881 5880 5879 5878 5876 5875 5874 5873 5872 5871 5871 5870 5869 5869 5868
5869 5872 5875 5879 5882 5884 5887 5890 5887 5887 5888 5889 5890 5890 5891 5891 5891 5891 5891 5891 5891 5890 5890 5890 5889 5888 5887 5886 5885 5884 5883 5882 5880 5879 5878 5877 5876 5875 5873 5872 5871 5869 5868 5867 5867 5866 5865 5865 5864
5862 5865 5868 5872 5874 5876 5879 5885 5881 5881 5882 5883 5884 5884 5885 5885 5886 5886 5885 5886 5886 5886 5885 5885 5885 5884 5883 5882 5881 5880 5879 5878 5876 5875 5874 5873 5872 5871 5869 5868 5867 5865 5864 5863 5862 5861 5860 5860 5859